Location: LDNL
(36.4545°S, 141.6685°E)
Time: 23:44:35
(UTC+10:00)

Hubble Space Telescope - Visible Passes

Search period start: 26 June 2022 00:00
Search period end: 06 July 2022 00:00
Orbit: 532 x 536 km, 28.5° (Epoch: 25 June)

Date Brightness Start Highest point End Pass type
(mag) Time Alt. Az. Time Alt. Az. Time Alt. Az.
26 Jun 2.9 06:20:19 10° NW 06:23:32 22° N 06:26:44 10° ENE visible
27 Jun 2.7 06:09:05 14° NW 06:11:33 23° N 06:14:53 10° ENE visible
28 Jun 2.5 05:58:04 20° NNW 05:59:34 25° N 06:03:00 10° ENE visible
29 Jun 2.3 05:46:58 25° NNW 05:47:35 26° N 05:51:04 10° ENE visible
30 Jun 2.4 05:35:48 27° N 05:35:48 27° N 05:39:08 10° ENE visible
30 Jun 2.8 07:13:02 10° WNW 07:16:13 21° N 07:19:25 10° NE visible
01 Jul 2.7 05:24:37 24° NNE 05:24:37 24° NNE 05:27:10 10° ENE visible
01 Jul 2.8 07:01:13 10° WNW 07:04:14 19° NNW 07:07:14 10° NNE visible
02 Jul 3.1 05:13:23 20° NE 05:13:23 20° NE 05:15:09 10° NE visible
02 Jul 2.9 06:49:28 10° WNW 06:52:13 17° NNW 06:54:58 10° NNE visible
03 Jul 3.5 05:02:10 15° NE 05:02:10 15° NE 05:03:07 10° NE visible
03 Jul 3.1 06:37:49 10° NW 06:40:12 15° NNW 06:42:35 10° NNE visible
04 Jul 3.9 04:50:56 11° NE 04:50:56 11° NE 04:51:03 10° NE visible
04 Jul 3.1 06:26:18 10° NW 06:28:10 13° NNW 06:30:02 10° N visible
05 Jul 3.2 06:15:14 10° NW 06:16:08 11° NNW 06:17:01 10° N visible
